Regional Weather Roundup
Issued by NWS

Home | Current Version | Previous Version | Graphics & Text | Print | Product List | Glossary On
Versions: 1 2 3 4 5 6 7 8 9 10 11 12 13 14 15 16 17 18 19 20 21 22 23 24 25 26 27 28 29 30 31 32 33 34 35 36 37 38 39 40 41 42 43 44 45 46 47 48 49 50
000
ASUS43 KTOP 302208
RWRKS

WEATHER ROUNDUP FOR KANSAS
NATIONAL WEATHER SERVICE GOODLAND KS
500 PM CDT THU JUL 30 2015

NOTE:  "FAIR" INDICATES FEW OR NO CLOUDS BELOW 12,000 FEET WITH NO
SIGNIFICANT WEATHER AND/OR OBSTRUCTIONS TO VISIBILITY.

KSZ001>006-013>018-027>032-041>047-302300-
NORTHWEST KANSAS

CITY           SKY/WX    TMP DP  RH WIND       PRES   REMARKS
GOODLAND       SUNNY     88  58  36 SE10G20   30.23F
HAYS           PTSUNNY   84  64  51 S3        30.17F
HILL CITY      SUNNY     89  64  43 S8        30.17F
RUSSELL        PTSUNNY   86  68  54 CALM      30.15F
$$

KSZ061>065-074>080-084>089-302300-
SOUTHWEST KANSAS

CITY           SKY/WX    TMP DP  RH WIND       PRES   REMARKS
DODGE CITY     PTSUNNY   82  65  56 SE6       30.19F
ELKHART          N/A     77  66  68 SE7         N/A
GARDEN CITY    CLOUDY    82  66  58 SE6       30.20F
GREAT BEND     MOSUNNY   84  66  54 SE8       30.16F
LIBERAL        PTSUNNY   81  66  61 S6        30.21F
PRATT          PTSUNNY   81  64  57 SE6       30.19F
$$

KSZ066>073-081>083-090>101-302300-
SOUTHEAST KANSAS

CITY           SKY/WX    TMP DP  RH WIND       PRES   REMARKS
CHANUTE        CLOUDY    84  67  56 N5        30.15F
COFFEYVILLE    CLOUDY    80  72  76 N7        30.12F
HUTCHINSON     MOSUNNY   84  68  58 SE9       30.16F
MEDICINE LODGE   N/A     82  70  66 VRB3      30.15F
NEWTON         MOSUNNY   82  64  54 SE5       30.20S
PARSONS        CLOUDY    80  72  76 CALM      30.15F
WICHITA INTL   MOSUNNY   84  69  60 SE6       30.15F
WICHITA JABRA  MOSUNNY   84  68  58 VRB3      30.16F
WICHITA MCCONL MOSUNNY   83  67  58 VRB7      30.16F
WINFIELD       MOSUNNY   83  71  67 E9        30.15F
$$

KSZ007>012-019>026-033>040-048>060-102>105-302300-
NORTHEAST KANSAS

CITY           SKY/WX    TMP DP  RH WIND       PRES   REMARKS
CONCORDIA      PTSUNNY   86  68  54 SE7       30.15F
EMPORIA        MOSUNNY   83  61  47 SE6       30.16F
LAWRENCE       PTSUNNY   85  62  46 E5        30.16F
MANHATTAN      MOSUNNY   87  61  41 SE6       30.14F
MARYSVILLE     SUNNY     88  55  33 S9        30.16F
OLATHE IND     PTSUNNY   86  53  32 VRB3      30.17F
OLATHE EXE     PTSUNNY   83  58  42 CALM      30.16F
SALINA         MOSUNNY   88  67  49 SE6       30.15F
TOPEKA BILLARD PTSUNNY   86  59  39 E3        30.15F
TOPEKA FORBES  PTSUNNY   88  56  33 SE5       30.16F
$$



USA.gov is the U.S. government's official web portal to all federal, state and local government web resources and services.